• MPC Preparation (Info)

  • MPEC 2023-F129 : 2023 FS3

    The following Minor Planet Electronic Circular may be linked-to from your own Web pages, but must not otherwise be redistributed electronically.

    A form allowing access to any MPEC is at the bottom of this page.


    Read MPEC 2023-F128 Read MPEC 2023-F130


    M.P.E.C. 2023-F129                               Issued 2023 March 24, 12:59 UT
    
         The Minor Planet Electronic Circulars contain information on unusual
             minor planets, routine data on comets and natural satellites,
             and occasional editorial announcements.  They are published
        on behalf of Division F of the International Astronomical Union by the
              Minor Planet Center, Smithsonian Astrophysical Observatory,
                              Cambridge, MA 02138, U.S.A.
    			  
                 Prepared using the Tamkin Foundation Computer Network
    
                                  MPC@CFA.HARVARD.EDU
                URL https://www.minorplanetcenter.net/    ISSN 1523-6714
    
                                    2023 FS3                                 
    
    
    Observations:
         K23F03S* C2023 03 21.50089214 26 16.989+39 28 16.02         20.53wUEF129F51
         K23F03S  C2023 03 21.51203414 26 15.058+39 27 57.48         20.68wUEF129F51
         K23F03S  C2023 03 21.53431914 26 11.197+39 27 20.18         20.57wUEF129F51
         K23F03S hC2023 03 21.89047014 25 13.38 +39 17 01.1          20.2 GVEF129L01
         K23F03S hC2023 03 21.89507914 25 12.62 +39 16 53.4          20.1 GVEF129L01
         K23F03S hC2023 03 21.94075714 25 04.75 +39 15 36.1          20.1 GVEF129L01
         K23F03S hC2023 03 21.94306014 25 04.39 +39 15 33.0          19.6 GVEF129L01
         K23F03S hC2023 03 21.94498114 25 04.07 +39 15 29.6          19.7 GVEF129L01
         K23F03S KC2023 03 22.06190414 24 44.01 +39 12 08.4          20.5 GXEF129I93
         K23F03S KC2023 03 22.07039214 24 42.56 +39 11 53.1                XEF129I93
         K23F03S KC2023 03 22.07888214 24 41.01 +39 11 38.7          20.4 GXEF129I93
         K23F03S  C2023 03 22.13942 14 24 30.21 +39 09 52.5          20.5 rXEF129511
         K23F03S  C2023 03 22.14304 14 24 29.60 +39 09 46.4          20.6 rXEF129511
         K23F03S  C2023 03 22.14585 14 24 29.12 +39 09 41.2          20.6 rXEF129511
         K23F03S  C2023 03 22.14866 14 24 28.61 +39 09 36.1          20.6 rXEF129511
         K23F03S  C2023 03 22.15147 14 24 28.11 +39 09 31.0          20.5 rXEF129511
         K23F03S  C2023 03 22.15428 14 24 27.63 +39 09 26.2          20.7 rXEF129511
         K23F03S  C2023 03 22.15709 14 24 27.13 +39 09 21.1          20.7 rXEF129511
         K23F03S  C2023 03 22.15990 14 24 26.65 +39 09 16.1          20.5 rXEF129511
         K23F03S  C2023 03 22.16271 14 24 26.00 +39 09 12.2          19.9 rXEF129511
         K23F03S KC2023 03 23.94348714 19 12.42 +38 13 14.5          19.9 GXEF129595
         K23F03S KC2023 03 23.96039014 19 09.28 +38 12 42.1          20.3 GXEF129595
         K23F03S KC2023 03 23.96074714 19 09.24 +38 12 40.8          19.3 GVEF129104
         K23F03S KC2023 03 23.96441614 19 08.46 +38 12 35.0          19.3 GVEF129104
         K23F03S KC2023 03 23.96808414 19 07.80 +38 12 26.5          19.3 GVEF129104
         K23F03S KC2023 03 23.97691614 19 06.05 +38 12 08.3          19.5 GXEF129595
         K23F03S KC2023 03 24.29281714 18 07.33 +38 01 26.9          20.1 GXEF129858
         K23F03S KC2023 03 24.29827514 18 06.28 +38 01 16.0          20.1 GXEF129858
         K23F03S KC2023 03 24.30364814 18 05.22 +38 01 05.2          19.9 GXEF129858
    
    Observer details:
    104 San Marcello Pistoiese.  Observers P. Bacci, M. Maestripieri.  Measurer P.
        Bacci.  0.60-m f/4.0 reflector + CCD.
    511 Haute Provence.  Observers K. Baillie, R. Dahoumane, W. Thuillot.
        Measurers W. Thuillot, K. Baillie, S. Bouquillon, F. Taris, T. Carlucci,
        C. Barache.  1.20-m f/6  reflector + CCD.
    595 Farra d'Isonzo.  Observer E. Pettarin.  0.61-m f/4.5 reflector + CCD.
    858 Tebbutt Observatory, Edgewood.  Observer F. B. Zoltowski.  0.51-m f/8.1
        Schmidt-Cassegrain + CCD.
    F51 Pan-STARRS 1, Haleakala.  Observers J. Bulger, T. Lowe, A. Schultz, I.
        Smith.  Measurers K. Chambers, S. Chastel, T. de Boer, J. Fairlamb, H.
        Gao, M. Huber, C.-C. Lin, E. Magnier, Y. Ramanjooloo, R. Wainscoat, R.
        Weryk.  1.8-m Ritchey-Chretien + CCD.
    I93 St Pardon de Conques.  Observer F. Losse.  0.40-m f/3.7 reflector + CCD.
    L01 Visnjan Observatory, Tican.  Observer K. Korlevic.  1.0-m f/2.9 reflector
        + CCD.
    
    Orbital elements:
    2023 FS3                                                 Earth MOID = 0.2677 AU
    Epoch 2023 Feb. 25.0 TT = JDT 2460000.5                 Veres                   
    M 348.64289              (2000.0)            P               Q                  
    n   0.19244123     Peri.  183.16651     -0.88963263     +0.37985082             
    a   2.9712371      Node    24.59719     -0.40447204     -0.39764799             
    e   0.5724794      Incl.   37.52101     -0.21202865     -0.83521819             
    P   5.12           H   20.08          G   0.15           U   9                  
    Residuals in seconds of arc
    230321 F51  0.1+  0.0     230322 I93  0.1+  0.0     230323 595  0.2-  0.3-
    230321 F51  0.0   0.0     230322 511  0.1-  0.2+    230323 595  0.8+  0.8+
    230321 F51  0.0   0.1-    230322 511  0.2+  0.5+    230323 104  0.3+  0.2-
    230321 L01  0.4-  0.0     230322 511  0.3+  0.3+    230323 104 (0.7-  1.3+)
    230321 L01  0.1-  0.0     230322 511  0.2+  0.2+    230323 104  0.2-  0.1+
    230321 L01  0.6-  0.3-    230322 511  0.1+  0.1+    230323 595  0.0   0.2-
    230321 L01  0.2-  0.5+    230322 511  0.3+  0.3+    230324 858  0.4-  0.1-
    230321 L01  0.1-  0.3+    230322 511  0.2+  0.2+    230324 858  0.2-  0.0
    230322 I93  0.3+  0.2+    230322 511  0.4+  0.2+    230324 858  0.3-  0.1+
    230322 I93  0.8+  0.3-    230322 511  1.5-  1.4+
    
    Ephemeris:
    2023 FS3                 a,e,i = 2.97, 0.57, 38                  q = 1.2703
    Date    TT    R. A. (2000) Decl.     Delta      r    Elong.  Phase     V
    2023 02 22    14 54 31.4 +44 54 28   0.7509  1.4509   112.3    39.1    21.8
    ...
    2023 03 09    14 49 30.8 +43 14 18   0.5879  1.3788   119.2    38.9    21.2
    ...
    2023 03 17    14 37 03.5 +41 14 45   0.5040  1.3465   124.6    37.5    20.7
    ...
    2023 03 23    14 22 02.2 +38 43 53   0.4444  1.3256   129.8    35.3    20.4
    2023 03 24    14 19 01.4 +38 11 27   0.4349  1.3224   130.8    34.8    20.3
    2023 03 25    14 15 51.7 +37 36 31   0.4255  1.3193   131.8    34.3    20.2
    ...
    2023 03 31    13 53 52.0 +33 04 26   0.3731  1.3025   138.7    30.4    19.8
    ...
    2023 04 08    13 17 40.1 +23 27 28   0.3182  1.2853   149.5    23.3    19.2
    ...
    2023 04 23    12 04 28.9 -04 33 47   0.2955  1.2705   150.4    23.0    19.0
    
    M. P. C. Staff               (C) Copyright 2023 MPC           M.P.E.C. 2023-F129
    


    Read MPEC 2023-F128 Read MPEC 2023-F130


    MPEC number:

    Enter an MPEC number in one of the following forms:

    • 1997-B01 (the full form)
    • J97B01 (the packed version of the full form)
    • B01 (the abbreviated form)